#timestamp,LO_Frequency,Hit,StdDev 
1709290815.4,286046997.9,N
1709290835.2,286046996.9,N
1709290855.1,286046999.0,N
1709290856.0,286046999.0,N
1709290875.8,286046998.3,N
1709290895.6,286047000.7,N
1709290915.5,286046999.3,N
1709290935.3,286046998.3,N
1709290985.2,286046999.4,E
1709290995.1,286046996.8,N
1709291015.8,286046998.4,P
1709291035.8,286046998.1,N
1709291055.6,286046998.6,N
1709291075.4,286046998.8,N
1709291095.3,286046998.4,N
1709291115.1,286046998.3,N
1709291135.9,286046998.5,N
1709291155.7,286046998.2,Y
1709291175.5,286047002.3,P
1709291195.4,286047000.4,N
1709291215.2,286047000.0,N
1709291235.0,286047000.3,N
1709291235.9,286047000.3,N
1709291255.8,286047000.4,N
1709291275.6,286046999.9,N
1709291295.5,286046999.7,N
1709291315.3,286047002.8,N
1709291335.1,286047000.2,N
1709291355.9,286047002.8,N
1709291375.7,286047001.2,N
1709291395.5,286046998.6,N
1709291415.4,286047001.0,N
1709291435.2,286047001.2,N
1709291455.1,286046999.9,N
1709291456.0,286046999.9,N
1709291475.8,286047002.8,N
1709291495.6,286047002.2,N
1709291515.5,286047002.3,N
1709291535.3,286047002.5,N
1709291555.1,286047002.1,N
1709291575.9,286047002.6,N
1709291595.7,286046999.8,N
1709291615.6,286047000.6,N
1709291635.4,286047000.6,N
1709291655.2,286047000.2,N
1709291675.1,286047000.9,N
1709291676.0,286047000.9,N
1709291695.8,286047000.8,N
1709291715.6,286047000.9,N
1709291735.5,286047000.4,N
1709291755.3,286046999.8,N
1709291775.2,286047000.9,N
1709291795.9,286047001.1,N
1709291815.7,286047000.1,N
1709291835.6,286047000.4,N
1709291855.4,286047000.6,N
1709291875.3,286047000.7,N
1709291895.1,286047001.2,N
1709291896.0,286047001.2,N
1709291915.8,286046998.8,N
1709291935.7,286047000.0,N
1709291955.5,286047002.6,N
1709291975.3,286047002.4,N
1709291995.2,286046999.9,N
1709292015.0,286046999.8,N
1709292015.9,286046999.8,N
1709292035.8,286047002.0,N
1709292055.6,286047002.0,N
1709292075.4,286047002.5,N
1709292095.3,286047002.0,N
1709292115.1,286047001.8,N
1709292135.8,286047002.3,N
1709292155.7,286047001.4,N
1709292175.5,286047003.3,Y
1709292195.4,286047001.6,P
1709292215.2,286047002.1,P
1709292235.0,286046999.9,N
1709292235.9,286046999.9,N
1709292255.8,286047002.7,Y
1709292275.6,286046998.6,P
1709292295.5,286046998.6,N
1709292315.3,286047000.9,N
1709292335.1,286046999.9,N
1709292355.9,286046999.7,N
1709292375.7,286047000.0,N
1709292395.6,286046998.6,N
1709292415.4,286046998.5,N
1709292435.2,286046998.7,N
1709292455.1,286047000.6,N
1709292456.0,286047000.6,N
1709292475.8,286047001.1,N
1709292495.7,286046998.1,N
1709292515.5,286047001.1,N
1709292535.3,286047000.9,N
1709292555.2,286047000.3,N
1709292575.0,286046998.4,N
1709292575.9,286046998.4,N
1709292595.8,286047001.0,N
1709292615.6,286046998.5,N
1709292635.4,286046999.3,N
1709292655.3,286046996.5,Y
1709292675.1,286046998.3,P
1709292695.9,286046999.5,N
1709292715.7,286046998.4,N
1709292735.5,286046998.7,N
1709292755.4,286046998.5,N
1709292775.2,286047000.7,N
1709292795.0,286046998.6,N
1709292795.9,286046998.6,N
1709292815.8,286046999.6,N
1709292835.6,286046998.9,N
1709292855.5,286046997.1,Y
1709292875.3,286047000.7,P
1709292895.1,286046998.7,N
1709292915.9,286047001.1,N
1709292935.7,286047001.1,N
1709292955.5,286046998.8,N
1709292975.4,286046999.2,N
1709292995.2,286046997.4,N
1709293015.1,286046997.4,N
1709293016.0,286046997.4,N
1709293035.8,286046995.1,Y
1709293055.6,286046995.3,P
1709293075.5,286046996.2,N
1709293095.3,286046995.2,N
1709293115.1,286046997.5,N
1709293135.9,286046997.6,N
1709293155.7,286046995.4,Y
1709293175.6,286047000.0,P
1709293195.4,286047000.7,N
1709293215.2,286046999.9,N
1709293235.1,286046999.9,N
1709293236.0,286046999.9,N
1709293255.8,286047000.1,N
1709293275.7,286047000.8,N
1709293295.5,286047000.6,N
1709293315.3,286047000.1,N
1709293335.2,286047000.3,N
1709293355.0,286046999.5,N
1709293355.9,286046999.5,N
1709293375.8,286046999.1,N
1709293395.6,286046996.7,Y
1709293415.4,286046998.7,P
1709293435.3,286047000.7,N
1709293455.1,286047001.0,N
1709293475.9,286047000.5,N
1709293495.7,286047000.7,N
1709293515.5,286047000.1,N
1709293535.4,286047002.1,N
1709293555.2,286047002.1,N
1709293575.0,286047001.4,N
1709293575.9,286047001.4,N
1709293595.8,286047004.4,Y
1709293615.6,286047001.5,P
1709293635.5,286047003.7,P
1709293655.3,286047004.2,P
1709293675.1,286047001.5,N
1709293695.9,286047002.3,N
1709293715.7,286047001.1,N
1709293735.6,286046999.0,N
1709293755.4,286046999.4,N
1709293775.2,286046998.9,N
1709293795.1,286046999.4,N
1709293796.0,286046999.4,N
1709293815.8,286046997.7,N
1709293835.6,286046995.0,N
1709293855.5,286046998.0,N
1709293875.3,286046997.3,N
1709293895.2,286046996.5,N
1709293915.9,286046999.6,N
1709293935.7,286046998.6,N
1709293955.6,286046996.9,N
1709293975.4,286046994.9,N
1709293995.2,286046998.0,N
1709294015.1,286046997.7,N
1709294016.0,286046997.7,N
1709294035.8,286046997.6,N
1709294055.7,286046995.1,N
1709294075.5,286046995.8,N
1709294095.3,286046993.7,N
1709294115.2,286046995.2,N
1709294135.0,286046995.5,N
1709294135.9,286046995.5,N
1709294155.8,286046997.5,N
1709294175.6,286046995.3,N
1709294195.4,286046995.4,N
1709294215.3,286046995.8,N
1709294235.1,286046995.7,N
1709294255.8,286046995.1,N
1709294275.7,286046995.2,N
1709294295.5,286046997.6,N
1709294315.4,286046999.6,N
1709294335.2,286046998.7,N
1709294355.0,286046998.2,N
1709294355.9,286046998.2,N
1709294375.8,286046998.9,N
1709294395.6,286046996.8,N
